{"data":{"norad_id":67478,"intl_designator":"2026-010C","name":"TIANQI-39","alt_names":[],"object_type":"PAYLOAD","status":"ACTIVE","operator":null,"country":"PRC","launch_date":"2026-01-15","launch_site_code":"YSLA","launch_vehicle":null,"mission":null,"orbit_class":"UNKNOWN","rcs_meters":null,"size_class":null,"mass_kg":null,"dimensions":null,"purposes":[],"wikipedia_slug":null,"has_3d_model":false,"image_url":null,"decayed_at":null,"tle_current":{"epoch":"2026-09-20T05:59:51.125856Z","epoch_age_seconds":118245,"freshness":"FRESH","line1":"1 67478U 26010C   26263.24989729 -.00000001  00000+0  87544-4 0  9993","line2":"2 67478  44.9813  14.6633 0012753  82.9166 277.3116 13.99237068 34761","mean_motion":13.99237068,"eccentricity":0.0012753,"inclination_deg":44.9813,"raan_deg":14.6633,"arg_perigee_deg":82.9166,"mean_anomaly_deg":277.3116,"bstar":8.7544e-5,"rev_number":3476,"period_min":102.91322556643,"perigee_km":887.16097509055,"apogee_km":905.71550669998,"semimajor_km":7274.5752408953,"source":"CELESTRAK","updated_at":"2026-09-21T09:00:16.669022Z"}}}